Powrót do katalogu

CZ-2C DEB

AktywnySSO
NORAD 40266·DEBRIS·🇨🇳 China

Wystrzelony Sep 28, 2014 z Jiuquan Satellite Launch Center

Loading…

Następne Przeloty (najbliższe 24 godziny)

TLE

ŚwieżeSource: Space-Track

Epoka: Sep 13, 2026, 17:23 UTC

1 40266U 14059F   26256.72494901  .00001565  00000-0  50064-3 0  9999
2 40266  98.3463 162.6510 0159698 317.1337  41.7488 14.33994514621360

Śledź CZ-2C DEB w czasie rzeczywistym z AllMySat

Download on the App Store